Weather in Karteros

Greece     35°19′40″N   25°11′51″E
temp.,
°C
wind,
m/s
gust,
m/s
humid.,
%
clouds,
%
prec.,
mm/h
press.,
hPa
HPBL,
m
28 february, sun
sun2823:00+9sse02880 0.0 101944
02:00+8ene12770 0.0 101935
05:00+8nne13901 0.0 1019123
08:00+10n14928 0.0 1019205
11:00+15nnw677115 0.0 1020774
14:00+15nnw89717 0.0 10201040
17:00+13n8107611 0.1 10211105
20:00+11n7118120 0.1 1021657
1 march, mon
mon123:00+11n6107327 0.1 1023559
02:00+10n7116513 0.1 1023636
05:00+9n811640 0.0 1023712
08:00+9n710690 0.0 10231106
11:00+11nnw9116513 0.0 10241257
14:00+11nnw9106110 0.0 10231232
17:00+10nnw810660 0.0 10221206
20:00+8n59761 0.0 1024423
2 march, tue
tue223:00+10n697472 0.1 1024934
02:00+10n8117159 0.1 10241002
05:00+10n8116882 0.1 10241117
08:00+9n10127776 0.6 10251211
11:00+9n10127697 0.6 10261314
14:00+9nnw10127598 1.1 10251417
17:00+8n9127698 0.9 10251237
20:00+8nnw11148085 2.6 10251015
3 march, wed
wed323:00+8nnw10137995 1.9 10251000
02:00+8nnw11147996 4.3 10241135
05:00+8nnw111478100 1.8 10241153
08:00+8nnw12157483 2.0 10241309
11:00+10nnw12156541 0.1 10241482
14:00+11nnw11126424 0.1 10241414
17:00+10nnw10127113 0.1 10241278
20:00+10n9127629 0.1 1024970
4 march, thu
thu423:00+10nnw7107982 0.1 1025877
02:00+10nnw797890 0.2 1024733
05:00+10nnw6108073 0.1 1023642
08:00+10nnw587755 0.1 1024711
11:00+13nnw676516 0.0 1024882
14:00+14nnw56628 0.0 1022771
17:00+12nnw34660 0.0 1022562
20:00+9nnw12800 0.0 1022122